FW4396 Weather Reports


Display with metric or nautical units.
time (UTC)temp
F
wind
direction
speed
MPH
gust
MPH
rain 1hr
in
rain 24hr
in
rain mn
in
humidity
%
barometer
mb
20260509153104 57 211 0.0 2.0 0.05 0.05 0.05 77 1012.1
20260509151621 58 211 0.0 2.0 0.03 0.03 0.03 76 1012.0
20260509150056 58 211 1.0 2.0 0.01 0.01 0.01 72 1012.2
20260509144559 59 211 0.0 2.0 0.00 0.00 0.00 70 1012.5
20260509143055 59 250 1.0 4.0 0.00 0.00 0.00 67 1012.2
20260509141553 59 275 2.0 5.0 0.00 0.00 0.00 65 1012.1
20260509134545 58 222 1.0 3.0 0.00 0.00 0.00 66 1011.8
20260509133043 57 198 1.0 4.0 0.00 0.00 0.00 67 1011.6
20260509131543 57 196 0.0 2.0 0.00 0.00 0.00 70 1011.5
20260509130036 57 196 0.0 2.0 0.00 0.00 0.00 69 1011.5
20260509124532 57 198 0.0 3.0 0.00 0.00 0.00 69 1011.5
20260509123033 56 171 1.0 3.0 0.00 0.00 0.00 70 1011.6
20260509121528 55 182 0.0 2.0 0.00 0.00 0.00 73 1011.3
20260509120035 54 195 1.0 5.0 0.00 0.00 0.00 75 1011.6
20260509114522 53 148 0.0 3.0 0.00 0.00 0.00 78 1011.0
20260509113020 53 149 0.0 2.0 0.00 0.00 0.00 80 1011.2
20260509111520 52 149 1.0 2.0 0.00 0.00 0.00 82 1011.0
20260509110018 52 149 0.0 1.0 0.00 0.00 0.00 82 1010.7
20260509104520 52 149 0.0 1.0 0.00 0.00 0.00 82 1011.0
20260509103017 52 149 0.0 1.0 0.00 0.00 0.00 81 1010.9
20260509101514 51 149 0.0 2.0 0.00 0.00 0.00 81 1010.7
20260509100012 51 149 0.0 0.0 0.00 0.00 0.00 80 1010.6
20260509094511 51 149 0.0 1.0 0.00 0.00 0.00 80 1010.5
20260509093010 51 149 0.0 1.0 0.00 0.00 0.00 80 1010.7
20260509091508 51 149 0.0 1.0 0.00 0.00 0.00 80 1010.7
20260509090008 51 149 0.0 0.0 0.00 0.00 0.00 79 1010.7
20260509084509 51 149 0.0 0.0 0.00 0.00 0.00 78 1011.0
20260509083005 51 149 0.0 1.0 0.00 0.00 0.00 78 1011.0
20260509081503 51 149 0.0 2.0 0.00 0.00 0.00 78 1011.2
20260509080002 51 149 0.0 2.0 0.00 0.00 0.00 77 1011.2
20260509074601 51 149 0.0 0.0 0.00 0.00 0.00 76 1011.2
20260509073138 51 149 0.0 0.0 0.00 0.00 0.00 76 1011.3
20260509071558 52 149 0.0 1.0 0.00 0.00 0.00 75 1011.3
20260509070059 52 149 0.0 1.0 0.00 0.00 0.00 74 1011.5
20260509064554 52 149 1.0 2.0 0.00 0.00 0.00 74 1011.4
20260509063053 53 149 0.0 1.0 0.00 0.00 0.00 73 1011.3
20260509061557 53 149 0.0 1.0 0.00 0.00 0.00 73 1011.4
20260509060101 53 149 0.0 1.0 0.00 0.00 0.00 73 1011.3
20260509054602 53 149 0.0 1.0 0.00 0.00 0.00 72 1011.6
20260509053045 53 149 0.0 2.0 0.00 0.00 0.00 72 1012.0
20260509051544 54 149 0.0 3.0 0.00 0.00 0.00 72 1012.3
20260509050043 54 151 1.0 4.0 0.00 0.00 0.00 72 1012.2
20260509044541 54 149 0.0 2.0 0.00 0.00 0.00 73 1012.2
20260509043041 55 149 0.0 1.0 0.00 0.00 0.00 72 1012.1
20260509041536 55 149 0.0 2.0 0.00 0.00 0.00 72 1012.3
20260509040043 55 149 0.0 2.0 0.00 0.00 0.00 71 1012.4
20260509034545 56 149 0.0 0.0 0.00 0.00 0.00 70 1012.4
20260509033033 56 149 0.0 2.0 0.00 0.00 0.00 71 1012.3
20260509031532 56 149 0.0 1.0 0.00 0.00 0.00 69 1012.6